This is the latest recevied weather packets stored in our database for station/object F6BIJ-13. If no packets are shown the sender has not sent any weather packets the latest 10 day(s).
| Time | Temp. | Humidity | Pressure | Rain* | Wind** | Luminosity | Snow |
|---|---|---|---|---|---|---|---|
| 1777645837 | 22.78° C | 53% | 1022.4 hPa | 0 mm | - | - | - |
| 1777645478 | 22.78° C | 51% | 1022.4 hPa | 0 mm | - | - | - |
| 1777645117 | 23.33° C | 52% | 1022.5 hPa | 0 mm | - | - | - |
| 1777644757 | 22.22° C | 53% | 1022.6 hPa | 0 mm | - | - | - |
| 1777644397 | 22.78° C | 53% | 1022.6 hPa | 0 mm | - | - | - |
| 1777644037 | 22.22° C | 53% | 1022.6 hPa | 0 mm | - | - | - |
| 1777643677 | 22.78° C | 51% | 1022.8 hPa | 0 mm | - | - | - |
| 1777643317 | 22.22° C | 51% | 1022.8 hPa | 0 mm | - | - | - |
| 1777642957 | 22.78° C | 50% | 1022.8 hPa | 0 mm | - | - | - |
| 1777642597 | 23.33° C | 51% | 1022.9 hPa | 0 mm | - | - | - |
| 1777642238 | 22.22° C | 53% | 1023 hPa | 0 mm | - | - | - |
| 1777641877 | 22.78° C | 51% | 1023 hPa | 0 mm | - | - | - |
| 1777641517 | 22.78° C | 52% | 1023 hPa | 0 mm | - | - | - |
| 1777641157 | 22.78° C | 49% | 1023.1 hPa | 0 mm | - | - | - |
| 1777640797 | 23.33° C | 48% | 1023.2 hPa | 0 mm | - | - | - |
| 1777640437 | 23.33° C | 49% | 1023.3 hPa | 0 mm | - | - | - |
| 1777640078 | 22.78° C | 50% | 1023.3 hPa | 0 mm | - | - | - |
| 1777639717 | 22.78° C | 48% | 1023.3 hPa | 0 mm | - | - | - |
| 1777639357 | 22.78° C | 48% | 1023.4 hPa | 0 mm | - | - | - |
| 1777638997 | 22.78° C | 47% | 1023.5 hPa | 0 mm | - | - | - |
| 1777638637 | 22.78° C | 49% | 1023.5 hPa | 0 mm | - | - | - |
| 1777638277 | 22.22° C | 49% | 1023.4 hPa | 0 mm | - | - | - |
| 1777637917 | 22.22° C | 49% | 1023.5 hPa | 0 mm | - | - | - |
| 1777637557 | 22.22° C | 51% | 1023.6 hPa | 0 mm | - | - | - |
| 1777637196 | 22.22° C | 50% | 1023.5 hPa | 0 mm | - | - | - |
* Rain latest 24 hours (hover to see other rain measurements)
** Current wind speed in m/s (hover to see current wind gust speed)